map of CWL home
CWL - Airport
Location
City:  Cardiff, Glamorgan, Wales, United Kingdom
Name:Cardiff International Airport
ICAO:EGFF
IATA:CWL

Details
Type:Airport (Aerodrome, Airfield)
Use:Public/Civil, International (customs port of entry)
Latitude:5123'48"N (51.396667)
Longitude:320'36"W (-3.343332)
Datum:WGS 1984
Elevation:220 ft (67 m)
Variation:1.49W (WMM2015 magnetic declination)
0.15 annual change
Runways:1
Longest:7848 × 151 ft (2392 × 46 m), paved

Time
Time Zone:UTC+0 (DST+1)
Local Time:

Weather
METAR:EGFF 181750Z AUTO 26009KT 9999 NCD 20/10 Q1019
TAF:EGFF 181702Z 1818/1918 27009KT 9999 SCT045

Related Locations
Nearby:
Farthest:NZBA: 11959 mi / 19246 km
Balclutha, OTA, NZ

Find:

   beyond  
but within

Other Information
Maps:
NOTAMs:
Links:
Sources:

  
  • flag of United Kingdom
  • flag of Wales
  • flag of Cardiff
  

Sectional Chart

Flight Planning
at skyvector.com

Satellite Image

Google Maps Satellite view

 

Copyright © 2004-2018 Karl L. Swartz. All rights reserved.
The Great Circle Mapper name and logo are trademarks of the Great Circle Mapper.
All other trademarks mentioned herein belong to their respective owners.
Please see credits for attibutions and further copyright information.

  Follow gcmap on Facebook Follow gcmap on Twitter Follow gcmap on Google+ GCmap on LinkedIn

hCard Microformat

Geo Microformat